Time,TemperatureF,DewpointF,PressureIn,WindDirection,WindDirectionDegrees,WindSpeedMPH,WindSpeedGustMPH,Humidity,HourlyPrecipIn,Conditions,Clouds,dailyrainin,SoftwareType,DateUTC
2013-01-29 00:03:00,68.0,62.2,29.58,SSE,157,7.0,17.0,82,0.00,,,0.00,meteohub,2013-01-29 06:03:00,
2013-01-29 00:08:00,67.8,62.1,29.58,South,185,8.0,17.0,82,0.00,,,0.00,meteohub,2013-01-29 06:08:00,
2013-01-29 00:13:00,67.8,62.1,29.58,ESE,123,5.0,21.0,82,0.00,,,0.00,meteohub,2013-01-29 06:13:00,
2013-01-29 00:18:00,67.8,62.1,29.58,SE,126,7.0,21.0,82,0.00,,,0.00,meteohub,2013-01-29 06:18:00,
2013-01-29 00:23:00,68.2,62.4,29.57,South,175,11.0,21.0,82,0.00,,,0.00,meteohub,2013-01-29 06:23:00,
2013-01-29 00:28:00,68.2,62.4,29.57,SSE,162,14.0,21.0,82,0.00,,,0.00,meteohub,2013-01-29 06:28:00,
2013-01-29 00:33:00,68.4,62.6,29.57,SE,144,15.0,21.0,82,0.00,,,0.00,meteohub,2013-01-29 06:33:00,
2013-01-29 00:38:00,68.4,62.6,29.57,SSE,161,14.0,21.0,82,0.00,,,0.00,meteohub,2013-01-29 06:38:00,
2013-01-29 00:43:00,68.4,62.6,29.56,SE,136,8.0,21.0,82,0.00,,,0.00,meteohub,2013-01-29 06:43:00,
2013-01-29 00:48:00,68.2,62.4,29.56,SSW,205,18.0,23.0,82,0.00,,,0.00,meteohub,2013-01-29 06:48:00,
2013-01-29 00:53:00,68.4,62.2,29.56,SSE,165,6.0,23.0,81,0.00,,,0.00,meteohub,2013-01-29 06:53:00,
2013-01-29 00:58:00,68.4,62.2,29.56,South,174,11.0,23.0,81,0.00,,,0.00,meteohub,2013-01-29 06:58:00,
2013-01-29 01:03:00,68.5,62.4,29.55,SSW,201,5.0,23.0,81,0.00,,,0.00,meteohub,2013-01-29 07:03:00,
2013-01-29 01:08:00,68.5,62.4,29.56,SSE,163,11.0,23.0,81,0.00,,,0.00,meteohub,2013-01-29 07:08:00,
2013-01-29 01:13:00,68.5,62.4,29.55,South,180,5.0,23.0,81,0.00,,,0.00,meteohub,2013-01-29 07:13:00,
2013-01-29 01:18:00,68.7,62.6,29.56,SSE,167,12.0,22.0,81,0.00,,,0.00,meteohub,2013-01-29 07:18:00,
2013-01-29 01:23:00,68.7,62.6,29.55,SW,218,19.0,22.0,81,0.00,,,0.00,meteohub,2013-01-29 07:23:00,
2013-01-29 01:28:00,68.7,62.6,29.56,West,279,3.0,22.0,81,0.00,,,0.00,meteohub,2013-01-29 07:28:00,
2013-01-29 01:33:00,68.7,62.6,29.55,SSW,202,7.0,22.0,81,0.00,,,0.00,meteohub,2013-01-29 07:33:00,
2013-01-29 01:38:00,68.5,62.4,29.55,SSW,194,12.0,20.0,81,0.00,,,0.00,meteohub,2013-01-29 07:38:00,
2013-01-29 01:43:00,68.5,62.4,29.55,SSW,200,22.0,22.0,81,0.00,,,0.00,meteohub,2013-01-29 07:43:00,
2013-01-29 01:48:00,68.5,62.4,29.55,SE,132,7.0,20.0,81,0.00,,,0.00,meteohub,2013-01-29 07:48:00,
2013-01-29 01:53:00,68.7,62.6,29.55,WSW,238,5.0,20.0,81,0.00,,,0.00,meteohub,2013-01-29 07:53:00,
2013-01-29 01:58:00,68.7,62.6,29.55,SSW,207,9.0,20.0,81,0.00,,,0.00,meteohub,2013-01-29 07:58:00,
2013-01-29 02:03:00,68.5,62.4,29.55,SSE,165,9.0,21.0,81,0.00,,,0.00,meteohub,2013-01-29 08:03:00,
2013-01-29 02:08:00,68.5,62.1,29.55,SSE,150,4.0,21.0,80,0.00,,,0.00,meteohub,2013-01-29 08:08:00,
2013-01-29 02:13:00,68.5,62.1,29.55,South,184,11.0,21.0,80,0.00,,,0.00,meteohub,2013-01-29 08:13:00,
2013-01-29 02:18:00,68.5,62.1,29.55,South,189,10.0,21.0,80,0.00,,,0.00,meteohub,2013-01-29 08:18:00,
2013-01-29 02:23:00,68.5,62.1,29.55,SSE,156,10.0,21.0,80,0.00,,,0.00,meteohub,2013-01-29 08:23:00,
2013-01-29 02:28:00,68.5,62.1,29.55,South,191,7.0,20.0,80,0.00,,,0.00,meteohub,2013-01-29 08:28:00,
2013-01-29 02:33:00,68.5,62.1,29.55,SE,146,9.0,20.0,80,0.00,,,0.00,meteohub,2013-01-29 08:33:00,
2013-01-29 02:38:00,68.4,61.9,29.55,SSE,161,7.0,20.0,80,0.00,,,0.00,meteohub,2013-01-29 08:38:00,
2013-01-29 02:43:00,68.4,62.2,29.55,SSE,165,3.0,20.0,81,0.00,,,0.00,meteohub,2013-01-29 08:43:00,
2013-01-29 02:48:00,68.4,62.2,29.55,South,178,3.0,17.0,81,0.00,,,0.00,meteohub,2013-01-29 08:48:00,
2013-01-29 02:53:00,68.2,62.1,29.54,SE,144,6.0,17.0,81,0.00,,,0.00,meteohub,2013-01-29 08:53:00,
2013-01-29 02:58:00,68.2,62.1,29.55,SE,136,5.0,17.0,81,0.00,,,0.00,meteohub,2013-01-29 08:58:00,
2013-01-29 03:03:00,68.0,61.9,29.54,SSW,205,7.0,17.0,81,0.00,,,0.00,meteohub,2013-01-29 09:03:00,
2013-01-29 03:08:00,67.8,61.7,29.54,SW,217,13.0,17.0,81,0.00,,,0.00,meteohub,2013-01-29 09:08:00,
2013-01-29 03:13:00,67.8,61.7,29.54,SSE,153,10.0,21.0,81,0.00,,,0.00,meteohub,2013-01-29 09:13:00,
2013-01-29 03:18:00,67.8,62.1,29.54,SE,131,6.0,21.0,82,0.00,,,0.00,meteohub,2013-01-29 09:18:00,
2013-01-29 03:23:00,67.6,61.9,29.54,SSW,202,6.0,21.0,82,0.00,,,0.00,meteohub,2013-01-29 09:23:00,
2013-01-29 03:28:00,67.6,61.9,29.54,SSE,161,9.0,21.0,82,0.00,,,0.00,meteohub,2013-01-29 09:28:00,
2013-01-29 03:33:00,67.6,61.9,29.54,South,175,4.0,19.0,82,0.00,,,0.00,meteohub,2013-01-29 09:33:00,
2013-01-29 03:38:00,67.5,61.7,29.54,ESE,122,7.0,19.0,82,0.00,,,0.00,meteohub,2013-01-29 09:38:00,
2013-01-29 03:43:00,67.5,61.7,29.54,SSE,164,9.0,19.0,82,0.00,,,0.00,meteohub,2013-01-29 09:43:00,
2013-01-29 03:48:00,67.5,61.7,29.54,SSW,208,10.0,19.0,82,0.00,,,0.00,meteohub,2013-01-29 09:48:00,
2013-01-29 03:53:00,67.3,61.9,29.54,SSW,198,14.0,19.0,83,0.00,,,0.00,meteohub,2013-01-29 09:53:00,
2013-01-29 03:58:00,67.3,61.5,29.54,South,190,3.0,18.0,82,0.00,,,0.00,meteohub,2013-01-29 09:58:00,
2013-01-29 04:03:00,67.1,61.7,29.54,South,169,2.0,18.0,83,0.00,,,0.00,meteohub,2013-01-29 10:03:00,
2013-01-29 04:08:00,66.9,61.5,29.53,SE,140,7.0,18.0,83,0.00,,,0.00,meteohub,2013-01-29 10:08:00,
2013-01-29 04:13:00,66.7,61.3,29.54,South,189,5.0,18.0,83,0.00,,,0.00,meteohub,2013-01-29 10:13:00,
2013-01-29 04:18:00,66.7,61.3,29.54,SE,140,7.0,17.0,83,0.00,,,0.00,meteohub,2013-01-29 10:18:00,
2013-01-29 04:23:00,66.6,61.2,29.54,SSE,157,2.0,17.0,83,0.00,,,0.00,meteohub,2013-01-29 10:23:00,
2013-01-29 04:28:00,66.4,61.3,29.54,SW,226,6.0,17.0,84,0.00,,,0.00,meteohub,2013-01-29 10:28:00,
2013-01-29 04:33:00,66.4,61.3,29.53,SSW,192,3.0,17.0,84,0.00,,,0.00,meteohub,2013-01-29 10:33:00,
2013-01-29 04:38:00,66.4,61.3,29.53,South,175,7.0,17.0,84,0.00,,,0.00,meteohub,2013-01-29 10:38:00,
2013-01-29 04:43:00,66.4,61.3,29.54,SE,146,8.0,17.0,84,0.00,,,0.00,meteohub,2013-01-29 10:43:00,
2013-01-29 04:48:00,66.4,61.3,29.54,South,179,3.0,17.0,84,0.00,,,0.00,meteohub,2013-01-29 10:48:00,
2013-01-29 04:53:00,66.2,61.2,29.54,SSE,153,2.0,17.0,84,0.00,,,0.00,meteohub,2013-01-29 10:53:00,
2013-01-29 04:58:00,66.0,61.0,29.54,South,177,4.0,17.0,84,0.00,,,0.00,meteohub,2013-01-29 10:58:00,
2013-01-29 05:03:00,66.0,61.0,29.54,SSW,198,4.0,17.0,84,0.00,,,0.00,meteohub,2013-01-29 11:03:00,
2013-01-29 05:08:00,65.8,60.8,29.53,SSE,154,2.0,17.0,84,0.00,,,0.00,meteohub,2013-01-29 11:08:00,
2013-01-29 05:13:00,65.8,60.8,29.53,SE,140,1.0,17.0,84,0.00,,,0.00,meteohub,2013-01-29 11:13:00,
2013-01-29 05:18:00,65.8,60.8,29.53,SSW,195,3.0,17.0,84,0.00,,,0.00,meteohub,2013-01-29 11:18:00,
2013-01-29 05:23:00,65.7,60.6,29.54,SSW,194,2.0,12.0,84,0.00,,,0.00,meteohub,2013-01-29 11:23:00,
2013-01-29 05:28:00,65.7,61.0,29.53,SSW,202,4.0,12.0,85,0.00,,,0.00,meteohub,2013-01-29 11:28:00,
2013-01-29 05:33:00,65.5,60.8,29.53,South,171,3.0,12.0,85,0.00,,,0.00,meteohub,2013-01-29 11:33:00,
2013-01-29 05:38:00,65.1,60.4,29.52,South,178,4.0,12.0,85,0.00,,,0.00,meteohub,2013-01-29 11:38:00,
2013-01-29 05:43:00,65.1,60.4,29.52,SE,138,2.0,12.0,85,0.00,,,0.00,meteohub,2013-01-29 11:43:00,
2013-01-29 05:48:00,64.9,60.6,29.52,SSW,194,3.0,12.0,86,0.00,,,0.00,meteohub,2013-01-29 11:48:00,
2013-01-29 05:53:00,64.8,60.4,29.52,SSE,161,1.0,12.0,86,0.00,,,0.00,meteohub,2013-01-29 11:53:00,
2013-01-29 05:58:00,64.8,60.4,29.52,South,187,5.0,12.0,86,0.00,,,0.00,meteohub,2013-01-29 11:58:00,
2013-01-29 06:03:00,64.6,60.3,29.52,SSE,163,3.0,9.0,86,0.00,,,0.00,meteohub,2013-01-29 12:03:00,
2013-01-29 06:08:00,64.6,60.6,29.52,South,188,2.0,9.0,87,0.00,,,0.00,meteohub,2013-01-29 12:08:00,
2013-01-29 06:13:00,64.6,60.6,29.52,WSW,238,6.0,9.0,87,0.00,,,0.00,meteohub,2013-01-29 12:13:00,
2013-01-29 06:18:00,64.0,58.8,29.54,NW,320,8.0,9.0,83,0.00,,,0.00,meteohub,2013-01-29 12:18:00,
2013-01-29 06:23:00,62.8,56.5,29.54,WNW,294,4.0,9.0,80,0.00,,,0.00,meteohub,2013-01-29 12:23:00,
2013-01-29 06:28:00,61.0,53.4,29.54,West,269,10.0,10.0,76,0.00,,,0.00,meteohub,2013-01-29 12:28:00,
2013-01-29 06:34:00,57.9,49.6,29.55,NW,315,10.0,10.0,74,0.00,,,0.00,meteohub,2013-01-29 12:34:00,
2013-01-29 06:39:00,55.0,48.0,29.55,WNW,296,11.0,11.0,77,0.00,,,0.00,meteohub,2013-01-29 12:39:00,
2013-01-29 06:44:00,53.2,47.3,29.55,NW,306,9.0,9.0,80,0.00,,,0.00,meteohub,2013-01-29 12:44:00,
2013-01-29 06:49:00,52.0,46.9,29.55,NW,309,10.0,10.0,83,0.00,,,0.00,meteohub,2013-01-29 12:49:00,
2013-01-29 06:54:00,51.1,46.0,29.55,NW,309,18.0,22.0,83,0.00,,,0.00,meteohub,2013-01-29 12:54:00,
2013-01-29 06:59:00,49.6,44.8,29.55,NW,311,15.0,22.0,83,0.00,,,0.00,meteohub,2013-01-29 12:59:00,
2013-01-29 07:04:00,48.7,43.9,29.55,WNW,302,11.0,22.0,83,0.00,,,0.00,meteohub,2013-01-29 13:04:00,
2013-01-29 07:09:00,48.0,43.3,29.56,WNW,286,9.0,22.0,84,0.00,,,0.00,meteohub,2013-01-29 13:09:00,
2013-01-29 07:14:00,47.3,43.0,29.55,WNW,286,13.0,22.0,85,0.00,,,0.00,meteohub,2013-01-29 13:14:00,
2013-01-29 07:19:00,46.8,42.4,29.56,WNW,298,15.0,22.0,85,0.00,,,0.00,meteohub,2013-01-29 13:19:00,
2013-01-29 07:24:00,46.4,42.4,29.56,NW,317,10.0,22.0,86,0.00,,,0.00,meteohub,2013-01-29 13:24:00,
2013-01-29 07:29:00,46.0,42.4,29.56,WNW,284,6.0,22.0,87,0.00,,,0.00,meteohub,2013-01-29 13:29:00,
2013-01-29 07:34:00,45.9,42.3,29.57,WNW,299,17.0,22.0,87,0.00,,,0.00,meteohub,2013-01-29 13:34:00,
2013-01-29 07:39:00,45.7,42.1,29.56,NNW,348,4.0,22.0,87,0.00,,,0.00,meteohub,2013-01-29 13:39:00,
2013-01-29 07:44:00,45.5,42.1,29.57,NW,312,9.0,22.0,88,0.00,,,0.00,meteohub,2013-01-29 13:44:00,
2013-01-29 07:49:00,45.5,42.1,29.57,NNW,342,2.0,19.0,88,0.00,,,0.00,meteohub,2013-01-29 13:49:00,
2013-01-29 07:54:00,45.7,42.3,29.57,NNW,340,5.0,19.0,88,0.00,,,0.00,meteohub,2013-01-29 13:54:00,
2013-01-29 07:59:00,45.9,42.4,29.57,WNW,287,3.0,19.0,88,0.00,,,0.00,meteohub,2013-01-29 13:59:00,
2013-01-29 08:04:00,46.0,42.6,29.57,WNW,302,3.0,19.0,88,0.00,,,0.00,meteohub,2013-01-29 14:04:00,
2013-01-29 08:09:00,46.0,42.6,29.59,WNW,300,3.0,19.0,88,0.00,,,0.00,meteohub,2013-01-29 14:09:00,
2013-01-29 08:14:00,46.0,42.4,29.60,NW,306,5.0,19.0,87,0.00,,,0.00,meteohub,2013-01-29 14:14:00,
2013-01-29 08:19:00,46.0,42.4,29.61,WNW,294,4.0,19.0,87,0.00,,,0.00,meteohub,2013-01-29 14:19:00,
2013-01-29 08:24:00,46.0,42.4,29.60,WNW,296,7.0,19.0,87,0.00,,,0.00,meteohub,2013-01-29 14:24:00,
2013-01-29 08:29:00,45.9,41.9,29.61,NW,306,2.0,14.0,86,0.00,,,0.00,meteohub,2013-01-29 14:29:00,
2013-01-29 08:34:00,45.5,41.5,29.62,WNW,292,7.0,14.0,86,0.00,,,0.00,meteohub,2013-01-29 14:34:00,
2013-01-29 08:39:00,45.1,41.2,29.63,WNW,295,6.0,14.0,86,0.00,,,0.00,meteohub,2013-01-29 14:39:00,
2013-01-29 08:44:00,44.8,41.2,29.63,NW,306,3.0,14.0,87,0.00,,,0.00,meteohub,2013-01-29 14:44:00,
2013-01-29 08:49:00,44.6,41.2,29.63,NW,309,7.0,14.0,88,0.00,,,0.00,meteohub,2013-01-29 14:49:00,
2013-01-29 08:54:00,44.2,41.2,29.62,NW,323,4.0,14.0,89,0.00,,,0.01,meteohub,2013-01-29 14:54:00,
2013-01-29 08:59:00,43.9,40.8,29.63,NNW,327,6.0,14.0,89,0.00,,,0.01,meteohub,2013-01-29 14:59:00,
2013-01-29 09:04:00,43.7,40.6,29.63,NW,306,4.0,14.0,89,0.03,,,0.01,meteohub,2013-01-29 15:04:00,
2013-01-29 09:09:00,43.5,40.8,29.62,NW,313,4.0,13.0,90,0.03,,,0.01,meteohub,2013-01-29 15:09:00,
2013-01-29 09:14:00,43.3,40.6,29.62,North,355,1.0,13.0,90,0.03,,,0.01,meteohub,2013-01-29 15:14:00,
2013-01-29 09:19:00,43.3,40.8,29.63,NNW,329,3.0,13.0,91,0.03,,,0.01,meteohub,2013-01-29 15:19:00,
2013-01-29 09:24:00,43.2,40.6,29.62,NNW,340,3.0,13.0,91,0.03,,,0.01,meteohub,2013-01-29 15:24:00,
2013-01-29 09:29:00,43.0,40.5,29.62,West,280,2.0,13.0,91,0.03,,,0.09,meteohub,2013-01-29 15:29:00,
2013-01-29 09:34:00,43.2,40.6,29.60,NW,317,1.0,13.0,91,0.03,,,0.09,meteohub,2013-01-29 15:34:00,
2013-01-29 09:39:00,43.2,40.6,29.57,NW,318,3.0,13.0,91,0.03,,,0.09,meteohub,2013-01-29 15:39:00,
2013-01-29 09:44:00,43.0,40.5,29.58,NE,46,2.0,5.0,91,0.13,,,0.09,meteohub,2013-01-29 15:44:00,
2013-01-29 09:49:00,43.2,41.0,29.58,NW,310,5.0,5.0,92,0.13,,,0.09,meteohub,2013-01-29 15:49:00,
2013-01-29 09:54:00,43.2,41.0,29.58,NW,315,2.0,5.0,92,0.13,,,0.09,meteohub,2013-01-29 15:54:00,
2013-01-29 09:59:00,43.2,41.0,29.59,North,9,0.0,5.0,92,0.13,,,0.09,meteohub,2013-01-29 15:59:00,
2013-01-29 10:04:00,43.2,41.0,29.58,NNE,23,3.0,5.0,92,0.13,,,0.09,meteohub,2013-01-29 16:04:00,
2013-01-29 10:09:00,43.2,41.0,29.58,ENE,65,2.0,5.0,92,0.13,,,0.24,meteohub,2013-01-29 16:09:00,
2013-01-29 10:14:00,42.6,40.1,29.58,North,5,3.0,5.0,91,0.13,,,0.24,meteohub,2013-01-29 16:14:00,
2013-01-29 10:19:00,42.4,39.9,29.59,NNW,348,3.0,5.0,91,0.16,,,0.24,meteohub,2013-01-29 16:19:00,
2013-01-29 10:24:00,42.3,39.7,29.58,West,278,3.0,10.0,91,0.16,,,0.24,meteohub,2013-01-29 16:24:00,
2013-01-29 10:29:00,42.4,39.9,29.58,NW,304,4.0,10.0,91,0.16,,,0.24,meteohub,2013-01-29 16:29:00,
2013-01-29 10:34:00,42.4,40.3,29.59,NNE,33,3.0,10.0,92,0.16,,,0.24,meteohub,2013-01-29 16:34:00,
2013-01-29 10:39:00,42.4,40.3,29.60,North,5,1.0,10.0,92,0.16,,,0.24,meteohub,2013-01-29 16:39:00,
2013-01-29 10:44:00,42.4,40.3,29.60,NW,326,1.0,10.0,92,0.16,,,0.24,meteohub,2013-01-29 16:44:00,
2013-01-29 10:49:00,42.6,40.5,29.59,NNW,331,4.0,10.0,92,0.16,,,0.25,meteohub,2013-01-29 16:49:00,
2013-01-29 10:54:00,42.6,40.1,29.58,North,0,5.0,10.0,91,0.16,,,0.25,meteohub,2013-01-29 16:54:00,
2013-01-29 10:59:00,42.6,40.1,29.58,NNE,27,1.0,10.0,91,0.02,,,0.25,meteohub,2013-01-29 16:59:00,
2013-01-29 11:04:00,42.4,39.9,29.58,NNE,14,0.0,6.0,91,0.02,,,0.25,meteohub,2013-01-29 17:04:00,
2013-01-29 11:09:00,42.4,39.9,29.59,North,355,3.0,6.0,91,0.02,,,0.25,meteohub,2013-01-29 17:09:00,
2013-01-29 11:14:00,42.4,39.9,29.57,NNW,347,3.0,6.0,91,0.02,,,0.25,meteohub,2013-01-29 17:14:00,
2013-01-29 11:19:00,42.1,39.6,29.57,North,350,1.0,6.0,91,0.02,,,0.25,meteohub,2013-01-29 17:19:00,
2013-01-29 11:24:00,42.1,39.6,29.57,NNW,336,4.0,6.0,91,0.02,,,0.26,meteohub,2013-01-29 17:24:00,
2013-01-29 11:29:00,41.7,39.0,29.55,NNW,342,3.0,6.0,90,0.02,,,0.26,meteohub,2013-01-29 17:29:00,
2013-01-29 11:34:00,41.5,38.8,29.55,NE,43,2.0,7.0,90,0.02,,,0.26,meteohub,2013-01-29 17:34:00,
2013-01-29 11:39:00,41.4,38.7,29.55,NNE,28,4.0,7.0,90,0.02,,,0.26,meteohub,2013-01-29 17:39:00,
2013-01-29 11:44:00,41.2,38.5,29.55,North,0,0.0,7.0,90,0.02,,,0.26,meteohub,2013-01-29 17:44:00,
2013-01-29 11:49:00,41.2,38.8,29.55,NW,322,3.0,7.0,91,0.02,,,0.26,meteohub,2013-01-29 17:49:00,
2013-01-29 11:54:00,41.2,38.8,29.53,NNW,344,2.0,7.0,91,0.02,,,0.26,meteohub,2013-01-29 17:54:00,
2013-01-29 11:59:00,41.0,38.7,29.51,NE,34,3.0,7.0,91,0.02,,,0.26,meteohub,2013-01-29 17:59:00,
2013-01-29 12:04:00,40.8,38.5,29.48,NNE,13,5.0,7.0,91,0.02,,,0.26,meteohub,2013-01-29 18:04:00,
2013-01-29 12:09:00,40.6,38.3,29.49,NNW,328,2.0,7.0,91,0.02,,,0.26,meteohub,2013-01-29 18:09:00,
2013-01-29 12:14:00,40.8,38.7,29.50,NNE,19,2.0,7.0,92,0.02,,,0.27,meteohub,2013-01-29 18:14:00,
2013-01-29 12:19:00,40.8,38.7,29.51,NW,315,2.0,7.0,92,0.02,,,0.27,meteohub,2013-01-29 18:19:00,
2013-01-29 12:24:00,40.8,38.7,29.51,NNE,21,3.0,7.0,92,0.02,,,0.27,meteohub,2013-01-29 18:24:00,
2013-01-29 12:29:00,40.8,38.7,29.51,North,355,1.0,12.0,92,0.02,,,0.27,meteohub,2013-01-29 18:29:00,
2013-01-29 12:34:00,40.6,38.5,29.53,NW,315,3.0,12.0,92,0.02,,,0.27,meteohub,2013-01-29 18:34:00,
2013-01-29 12:39:00,40.5,38.3,29.52,ENE,74,6.0,12.0,92,0.02,,,0.27,meteohub,2013-01-29 18:39:00,
2013-01-29 12:44:00,40.3,37.9,29.53,NE,34,3.0,12.0,91,0.02,,,0.28,meteohub,2013-01-29 18:44:00,
2013-01-29 12:49:00,40.3,37.9,29.53,North,11,5.0,12.0,91,0.02,,,0.28,meteohub,2013-01-29 18:49:00,
2013-01-29 12:54:00,40.1,37.8,29.52,NE,41,7.0,12.0,91,0.02,,,0.28,meteohub,2013-01-29 18:54:00,
2013-01-29 12:59:00,39.7,37.4,29.52,WNW,287,8.0,12.0,91,0.01,,,0.28,meteohub,2013-01-29 18:59:00,
2013-01-29 13:04:00,39.7,37.4,29.53,NE,50,6.0,12.0,91,0.01,,,0.28,meteohub,2013-01-29 19:04:00,
2013-01-29 13:09:00,39.4,37.0,29.47,NNW,334,7.0,12.0,91,0.01,,,0.28,meteohub,2013-01-29 19:09:00,
2013-01-29 13:14:00,38.8,36.5,29.46,NNE,15,5.0,12.0,91,0.01,,,0.28,meteohub,2013-01-29 19:14:00,
2013-01-29 13:19:00,39.0,36.9,29.49,WNW,294,5.0,12.0,92,0.01,,,0.28,meteohub,2013-01-29 19:19:00,
2013-01-29 13:24:00,39.0,36.9,29.49,NW,318,5.0,12.0,92,0.01,,,0.28,meteohub,2013-01-29 19:24:00,
2013-01-29 13:29:00,39.0,36.9,29.51,North,10,7.0,16.0,92,0.00,,,0.28,meteohub,2013-01-29 19:29:00,
2013-01-29 13:34:00,38.7,36.3,29.49,NNE,13,3.0,16.0,91,0.00,,,0.28,meteohub,2013-01-29 19:34:00,
2013-01-29 13:39:00,38.5,36.1,29.50,NW,322,2.0,16.0,91,0.00,,,0.28,meteohub,2013-01-29 19:39:00,
2013-01-29 13:44:00,38.1,36.0,29.50,NW,317,8.0,16.0,92,0.00,,,0.28,meteohub,2013-01-29 19:44:00,
2013-01-29 13:49:00,37.9,35.8,29.49,North,350,7.0,16.0,92,0.00,,,0.28,meteohub,2013-01-29 19:49:00,
2013-01-29 13:54:00,37.9,35.8,29.49,NNW,329,6.0,12.0,92,0.00,,,0.28,meteohub,2013-01-29 19:54:00,
2013-01-29 13:58:00,37.9,35.8,29.49,NNW,346,7.0,12.0,92,0.00,,,0.28,meteohub,2013-01-29 19:58:00,
2013-01-29 14:03:00,37.9,35.8,29.50,NNW,334,11.0,12.0,92,0.00,,,0.28,meteohub,2013-01-29 20:03:00,
2013-01-29 14:08:00,37.9,35.8,29.49,NNE,32,3.0,12.0,92,0.00,,,0.28,meteohub,2013-01-29 20:08:00,
2013-01-29 14:13:00,37.9,35.8,29.48,NW,313,1.0,12.0,92,0.00,,,0.28,meteohub,2013-01-29 20:13:00,
2013-01-29 14:18:00,37.9,35.8,29.47,NNW,342,9.0,13.0,92,0.00,,,0.28,meteohub,2013-01-29 20:18:00,
2013-01-29 14:23:00,37.9,35.6,29.46,NE,40,4.0,13.0,91,0.00,,,0.28,meteohub,2013-01-29 20:23:00,
2013-01-29 14:28:00,37.8,35.4,29.49,NNW,340,5.0,13.0,91,0.00,,,0.28,meteohub,2013-01-29 20:28:00,
2013-01-29 14:33:00,37.8,35.4,29.48,NW,305,6.0,13.0,91,0.00,,,0.28,meteohub,2013-01-29 20:33:00,
2013-01-29 14:38:00,37.9,35.6,29.47,NW,315,4.0,15.0,91,0.00,,,0.28,meteohub,2013-01-29 20:38:00,
2013-01-29 14:43:00,37.9,35.6,29.46,NW,315,4.0,15.0,91,0.00,,,0.28,meteohub,2013-01-29 20:43:00,
2013-01-29 14:48:00,37.8,35.4,29.49,NW,321,9.0,15.0,91,0.00,,,0.28,meteohub,2013-01-29 20:48:00,
2013-01-29 14:53:00,37.8,35.4,29.49,ENE,67,3.0,15.0,91,0.00,,,0.28,meteohub,2013-01-29 20:53:00,
2013-01-29 14:58:00,37.8,35.1,29.52,NNW,345,5.0,13.0,90,0.00,,,0.28,meteohub,2013-01-29 20:58:00,
2013-01-29 15:03:00,37.6,34.9,29.51,NNW,347,9.0,13.0,90,0.00,,,0.28,meteohub,2013-01-29 21:03:00,
2013-01-29 15:08:00,37.8,35.1,29.51,NNW,338,4.0,13.0,90,0.00,,,0.28,meteohub,2013-01-29 21:08:00,
2013-01-29 15:13:00,37.8,35.1,29.50,NE,34,4.0,13.0,90,0.00,,,0.28,meteohub,2013-01-29 21:13:00,
2013-01-29 15:18:00,37.8,35.1,29.52,NW,312,2.0,13.0,90,0.00,,,0.28,meteohub,2013-01-29 21:18:00,
2013-01-29 15:23:00,37.9,35.2,29.52,WNW,286,6.0,13.0,90,0.00,,,0.28,meteohub,2013-01-29 21:23:00,
2013-01-29 15:28:00,37.9,35.2,29.53,NW,311,11.0,13.0,90,0.00,,,0.28,meteohub,2013-01-29 21:28:00,
2013-01-29 15:33:00,37.9,35.2,29.52,NNW,336,3.0,13.0,90,0.00,,,0.28,meteohub,2013-01-29 21:33:00,
2013-01-29 15:38:00,37.9,35.2,29.51,NNE,13,6.0,13.0,90,0.00,,,0.28,meteohub,2013-01-29 21:38:00,
2013-01-29 15:43:00,37.9,35.1,29.54,NNW,327,3.0,15.0,89,0.00,,,0.28,meteohub,2013-01-29 21:43:00,
2013-01-29 15:48:00,37.9,35.1,29.51,NNE,32,2.0,15.0,89,0.00,,,0.28,meteohub,2013-01-29 21:48:00,
2013-01-29 15:53:00,38.1,35.4,29.53,NW,325,10.0,15.0,90,0.00,,,0.28,meteohub,2013-01-29 21:53:00,
2013-01-29 15:58:00,37.9,35.1,29.53,NW,317,13.0,15.0,89,0.00,,,0.28,meteohub,2013-01-29 21:58:00,
2013-01-29 16:03:00,37.8,34.9,29.53,North,5,10.0,15.0,89,0.00,,,0.28,meteohub,2013-01-29 22:03:00,
2013-01-29 16:08:00,37.8,34.9,29.51,NNW,346,6.0,17.0,89,0.00,,,0.28,meteohub,2013-01-29 22:08:00,
2013-01-29 16:13:00,37.8,34.9,29.52,NNW,344,2.0,17.0,89,0.00,,,0.28,meteohub,2013-01-29 22:13:00,
2013-01-29 16:18:00,37.6,34.7,29.51,NW,304,3.0,17.0,89,0.00,,,0.28,meteohub,2013-01-29 22:18:00,
2013-01-29 16:23:00,37.6,34.7,29.51,NNE,14,4.0,17.0,89,0.00,,,0.28,meteohub,2013-01-29 22:23:00,
2013-01-29 16:28:00,37.2,34.3,29.50,NNW,333,6.0,17.0,89,0.00,,,0.28,meteohub,2013-01-29 22:28:00,
2013-01-29 16:33:00,37.0,34.3,29.48,NW,306,10.0,15.0,90,0.00,,,0.28,meteohub,2013-01-29 22:33:00,
2013-01-29 16:38:00,37.0,34.3,29.48,ENE,71,5.0,15.0,90,0.00,,,0.28,meteohub,2013-01-29 22:38:00,
2013-01-29 16:43:00,37.0,34.3,29.51,WNW,297,10.0,15.0,90,0.00,,,0.28,meteohub,2013-01-29 22:43:00,
2013-01-29 16:48:00,37.0,34.3,29.51,North,355,0.0,15.0,90,0.00,,,0.28,meteohub,2013-01-29 22:48:00,
2013-01-29 16:53:00,37.2,34.5,29.52,NW,326,4.0,15.0,90,0.00,,,0.28,meteohub,2013-01-29 22:53:00,
2013-01-29 16:58:00,37.0,34.3,29.50,North,0,2.0,13.0,90,0.00,,,0.28,meteohub,2013-01-29 22:58:00,
2013-01-29 17:03:00,37.0,34.7,29.52,NW,321,4.0,13.0,91,0.00,,,0.28,meteohub,2013-01-29 23:03:00,
2013-01-29 17:08:00,37.0,34.3,29.54,NW,316,3.0,13.0,90,0.00,,,0.28,meteohub,2013-01-29 23:08:00,
2013-01-29 17:13:00,37.0,34.7,29.53,North,355,5.0,13.0,91,0.00,,,0.28,meteohub,2013-01-29 23:13:00,
2013-01-29 17:18:00,37.0,34.7,29.53,NNW,344,5.0,13.0,91,0.00,,,0.28,meteohub,2013-01-29 23:18:00,
2013-01-29 17:23:00,37.0,34.7,29.53,NW,318,0.0,13.0,91,0.00,,,0.28,meteohub,2013-01-29 23:23:00,
2013-01-29 17:28:00,37.0,34.3,29.55,NNE,13,1.0,13.0,90,0.00,,,0.28,meteohub,2013-01-29 23:28:00,
2013-01-29 17:33:00,37.0,34.3,29.55,NW,319,6.0,13.0,90,0.00,,,0.28,meteohub,2013-01-29 23:33:00,
2013-01-29 17:39:00,37.0,34.3,29.54,NNW,329,3.0,13.0,90,0.00,,,0.28,meteohub,2013-01-29 23:39:00,
2013-01-29 17:44:00,37.0,34.3,29.55,NNW,328,2.0,13.0,90,0.00,,,0.28,meteohub,2013-01-29 23:44:00,
2013-01-29 17:49:00,37.0,34.7,29.55,NNW,342,3.0,13.0,91,0.00,,,0.28,meteohub,2013-01-29 23:49:00,
2013-01-29 17:54:00,37.0,34.7,29.54,NNW,332,2.0,13.0,91,0.00,,,0.28,meteohub,2013-01-29 23:54:00,
2013-01-29 17:59:00,37.0,34.7,29.54,NNW,337,4.0,13.0,91,0.00,,,0.28,meteohub,2013-01-29 23:59:00,
2013-01-29 18:04:00,36.9,34.5,29.53,NW,304,3.0,13.0,91,0.01,,,0.28,meteohub,2013-01-30 00:04:00,
2013-01-29 18:09:00,36.7,34.3,29.51,NE,51,1.0,11.0,91,0.01,,,0.28,meteohub,2013-01-30 00:09:00,
2013-01-29 18:14:00,36.7,34.5,29.50,NW,317,3.0,11.0,92,0.01,,,0.28,meteohub,2013-01-30 00:14:00,
2013-01-29 18:19:00,36.9,34.7,29.51,North,355,1.0,11.0,92,0.01,,,0.28,meteohub,2013-01-30 00:19:00,
2013-01-29 18:24:00,36.7,34.5,29.52,NW,315,5.0,11.0,92,0.01,,,0.28,meteohub,2013-01-30 00:24:00,
2013-01-29 18:29:00,36.7,34.5,29.53,NW,314,5.0,11.0,92,0.01,,,0.01,meteohub,2013-01-30 00:29:00,
2013-01-29 18:34:00,36.7,34.5,29.53,NE,36,1.0,11.0,92,0.01,,,0.01,meteohub,2013-01-30 00:34:00,
2013-01-29 18:39:00,36.7,34.5,29.53,NW,325,2.0,11.0,92,0.02,,,0.01,meteohub,2013-01-30 00:39:00,
2013-01-29 18:44:00,36.7,34.5,29.53,NW,315,6.0,12.0,92,0.02,,,0.01,meteohub,2013-01-30 00:44:00,
2013-01-29 18:49:00,36.7,34.5,29.53,North,350,4.0,12.0,92,0.02,,,0.01,meteohub,2013-01-30 00:49:00,
2013-01-29 18:54:00,36.7,34.5,29.54,WNW,294,6.0,12.0,92,0.02,,,0.01,meteohub,2013-01-30 00:54:00,
2013-01-29 18:59:00,36.3,34.2,29.54,WNW,298,3.0,12.0,92,0.02,,,0.01,meteohub,2013-01-30 00:59:00,
2013-01-29 19:04:00,36.5,34.3,29.55,NW,321,5.0,12.0,92,0.02,,,0.01,meteohub,2013-01-30 01:04:00,
2013-01-29 19:09:00,36.3,34.2,29.55,WNW,301,3.0,12.0,92,0.02,,,0.01,meteohub,2013-01-30 01:09:00,
2013-01-29 19:14:00,36.3,34.2,29.55,WNW,282,4.0,12.0,92,0.01,,,0.01,meteohub,2013-01-30 01:14:00,
2013-01-29 19:19:00,36.1,34.0,29.55,NW,316,6.0,10.0,92,0.01,,,0.01,meteohub,2013-01-30 01:19:00,
2013-01-29 19:24:00,36.1,34.0,29.55,NW,318,9.0,10.0,92,0.01,,,0.01,meteohub,2013-01-30 01:24:00,
2013-01-29 19:29:00,36.1,34.0,29.55,NNW,345,4.0,10.0,92,0.01,,,0.03,meteohub,2013-01-30 01:29:00,
2013-01-29 19:34:00,36.1,34.3,29.55,NW,313,3.0,10.0,93,0.01,,,0.03,meteohub,2013-01-30 01:34:00,
2013-01-29 19:39:00,36.1,34.3,29.55,NW,304,3.0,11.0,93,0.02,,,0.03,meteohub,2013-01-30 01:39:00,
2013-01-29 19:44:00,36.1,34.3,29.56,NW,319,11.0,11.0,93,0.02,,,0.03,meteohub,2013-01-30 01:44:00,
2013-01-29 19:49:00,36.1,34.3,29.55,WNW,294,5.0,11.0,93,0.02,,,0.03,meteohub,2013-01-30 01:49:00,
2013-01-29 19:54:00,36.1,34.3,29.55,NNW,345,6.0,11.0,93,0.02,,,0.04,meteohub,2013-01-30 01:54:00,
2013-01-29 19:59:00,36.3,34.5,29.55,North,355,0.0,11.0,93,0.03,,,0.04,meteohub,2013-01-30 01:59:00,
2013-01-29 20:04:00,36.3,34.2,29.54,NNW,330,4.0,12.0,92,0.03,,,0.04,meteohub,2013-01-30 02:04:00,
2013-01-29 20:09:00,36.3,34.2,29.54,NNE,19,4.0,12.0,92,0.03,,,0.04,meteohub,2013-01-30 02:09:00,
2013-01-29 20:14:00,36.3,34.2,29.54,North,355,4.0,12.0,92,0.03,,,0.04,meteohub,2013-01-30 02:14:00,
2013-01-29 20:19:00,36.3,34.2,29.53,North,355,1.0,12.0,92,0.03,,,0.05,meteohub,2013-01-30 02:19:00,
2013-01-29 20:24:00,36.3,34.2,29.52,NNE,18,3.0,12.0,92,0.02,,,0.05,meteohub,2013-01-30 02:24:00,
2013-01-29 20:29:00,36.3,34.2,29.53,North,0,0.0,9.0,92,0.02,,,0.05,meteohub,2013-01-30 02:29:00,
2013-01-29 20:34:00,36.5,34.3,29.54,NNE,24,3.0,9.0,92,0.02,,,0.05,meteohub,2013-01-30 02:34:00,
2013-01-29 20:39:00,36.5,34.3,29.53,NE,53,2.0,9.0,92,0.02,,,0.05,meteohub,2013-01-30 02:39:00,
2013-01-29 20:44:00,36.5,34.3,29.52,NE,44,5.0,9.0,92,0.02,,,0.05,meteohub,2013-01-30 02:44:00,
2013-01-29 20:49:00,36.5,34.3,29.51,North,355,2.0,6.0,92,0.01,,,0.05,meteohub,2013-01-30 02:49:00,
2013-01-29 20:54:00,36.5,34.3,29.51,NE,36,3.0,6.0,92,0.01,,,0.05,meteohub,2013-01-30 02:54:00,
2013-01-29 20:59:00,36.3,34.2,29.51,NE,35,4.0,6.0,92,0.01,,,0.06,meteohub,2013-01-30 02:59:00,
2013-01-29 21:04:00,36.3,34.2,29.50,North,351,5.0,6.0,92,0.02,,,0.06,meteohub,2013-01-30 03:04:00,
2013-01-29 21:09:00,36.3,34.2,29.50,North,5,1.0,9.0,92,0.02,,,0.06,meteohub,2013-01-30 03:09:00,
2013-01-29 21:14:00,36.3,34.2,29.51,NNE,18,6.0,9.0,92,0.02,,,0.06,meteohub,2013-01-30 03:14:00,
2013-01-29 21:19:00,36.3,34.2,29.52,NNE,32,2.0,9.0,92,0.02,,,0.06,meteohub,2013-01-30 03:19:00,
2013-01-29 21:24:00,36.5,34.3,29.54,NNW,332,2.0,9.0,92,0.02,,,0.06,meteohub,2013-01-30 03:24:00,
2013-01-29 21:29:00,36.7,34.5,29.55,North,0,2.0,9.0,92,0.02,,,0.06,meteohub,2013-01-30 03:29:00,
2013-01-29 21:34:00,36.7,34.5,29.53,North,355,2.0,9.0,92,0.01,,,0.06,meteohub,2013-01-30 03:34:00,
2013-01-29 21:39:00,36.9,34.7,29.53,NW,325,2.0,7.0,92,0.01,,,0.06,meteohub,2013-01-30 03:39:00,
2013-01-29 21:44:00,36.9,34.7,29.53,NNW,337,4.0,7.0,92,0.01,,,0.06,meteohub,2013-01-30 03:44:00,
2013-01-29 21:49:00,36.9,34.7,29.53,NNW,332,2.0,7.0,92,0.01,,,0.06,meteohub,2013-01-30 03:49:00,
2013-01-29 21:54:00,36.9,34.7,29.54,WNW,296,3.0,7.0,92,0.00,,,0.06,meteohub,2013-01-30 03:54:00,
2013-01-29 21:59:00,36.9,34.7,29.52,NNE,33,1.0,6.0,92,0.00,,,0.06,meteohub,2013-01-30 03:59:00,
2013-01-29 22:04:00,36.9,34.7,29.50,NE,56,3.0,6.0,92,0.00,,,0.06,meteohub,2013-01-30 04:04:00,
2013-01-29 22:09:00,36.7,34.3,29.46,NNE,19,5.0,6.0,91,0.00,,,0.06,meteohub,2013-01-30 04:09:00,
2013-01-29 22:14:00,36.3,34.2,29.45,NE,34,10.0,10.0,92,0.00,,,0.06,meteohub,2013-01-30 04:14:00,
2013-01-29 22:19:00,36.1,34.0,29.44,NE,45,6.0,15.0,92,0.01,,,0.06,meteohub,2013-01-30 04:19:00,
2013-01-29 22:24:00,36.1,34.0,29.42,NE,46,5.0,15.0,92,0.01,,,0.06,meteohub,2013-01-30 04:24:00,
2013-01-29 22:29:00,36.1,34.0,29.41,NNE,24,4.0,15.0,92,0.01,,,0.06,meteohub,2013-01-30 04:29:00,
2013-01-29 22:34:00,36.1,34.0,29.43,NNW,336,5.0,15.0,92,0.01,,,0.07,meteohub,2013-01-30 04:34:00,
2013-01-29 22:39:00,36.3,34.2,29.44,NW,310,11.0,15.0,92,0.01,,,0.07,meteohub,2013-01-30 04:39:00,
2013-01-29 22:44:00,36.3,34.2,29.48,WNW,291,4.0,13.0,92,0.01,,,0.07,meteohub,2013-01-30 04:44:00,
2013-01-29 22:49:00,36.3,34.2,29.50,WNW,288,7.0,13.0,92,0.01,,,0.07,meteohub,2013-01-30 04:49:00,
2013-01-29 22:54:00,36.3,34.2,29.50,WNW,296,4.0,13.0,92,0.01,,,0.07,meteohub,2013-01-30 04:54:00,
2013-01-29 22:59:00,36.5,34.3,29.52,West,267,4.0,13.0,92,0.01,,,0.07,meteohub,2013-01-30 04:59:00,
2013-01-29 23:03:00,36.5,34.3,29.52,WNW,298,6.0,13.0,92,0.01,,,0.07,meteohub,2013-01-30 05:03:00,
2013-01-29 23:09:00,36.7,34.5,29.51,NW,313,4.0,11.0,92,0.01,,,0.07,meteohub,2013-01-30 05:09:00,
2013-01-29 23:14:00,36.5,34.2,29.52,West,275,3.0,11.0,91,0.01,,,0.07,meteohub,2013-01-30 05:14:00,
2013-01-29 23:19:00,36.5,34.2,29.53,NNW,329,6.0,11.0,91,0.01,,,0.07,meteohub,2013-01-30 05:19:00,
2013-01-29 23:24:00,36.5,34.2,29.53,NW,307,9.0,11.0,91,0.01,,,0.07,meteohub,2013-01-30 05:24:00,
2013-01-29 23:29:00,36.5,33.8,29.53,WNW,297,6.0,11.0,90,0.01,,,0.07,meteohub,2013-01-30 05:29:00,
2013-01-29 23:34:00,36.7,34.0,29.53,WNW,296,8.0,11.0,90,0.00,,,0.07,meteohub,2013-01-30 05:34:00,
2013-01-29 23:39:00,36.7,34.0,29.53,North,355,4.0,11.0,90,0.00,,,0.07,meteohub,2013-01-30 05:39:00,
2013-01-29 23:44:00,36.5,33.8,29.54,North,351,3.0,11.0,90,0.00,,,0.07,meteohub,2013-01-30 05:44:00,
2013-01-29 23:49:00,36.3,33.6,29.54,North,5,4.0,11.0,90,0.00,,,0.07,meteohub,2013-01-30 05:49:00,
2013-01-29 23:54:00,36.1,33.3,29.52,NNE,24,4.0,11.0,89,0.00,,,0.07,meteohub,2013-01-30 05:54:00,
2013-01-29 23:59:00,36.3,33.6,29.51,NE,37,3.0,12.0,90,0.00,,,0.07,meteohub,2013-01-30 05:59:00,